Location: Akdamlar
(36.8729°N, 30.5187°E)
Time: 15:07:19
(UTC+00:00)

Helios 1A Rocket - Pass Details

Date: 18 September 2020
Orbit: 563 x 586 km, 98.3° (Epoch: 19 October)

Event Time Altitude Azimuth Distance (km) Brightness Sun altitude
Rises 16:26:53 0° 173° (S) 2,768 6.3 -6.1°
Reaches altitude 10° 16:29:02 10° 177° (S) 1,878 5.4 -6.5°
Maximum altitude 16:33:04 63° 258° (WSW) 648 3.5 -7.3°
Drops below altitude 10° 16:37:09 10° 340° (NNW) 1,905 6.0 -8.1°
Sets 16:39:21 0° 344° (NNW) 2,812 6.8 -8.6°
